Location: The Saddle
(36.8333°N, 80.3417°W)
Time: 07:09:11
(UTC-05:00)

Vanguard 2 Rocket - Pass Details

Date: 15 December 2023
Orbit: 555 x 3309 km, 32.9° (Epoch: 02 March)

Event Time Altitude Azimuth Distance (km) Brightness Sun altitude
Rises 13:06:02 0° 255° (WSW) 4,894 11.0 28.8°
Reaches altitude 10° 13:08:43 10° 253° (WSW) 4,201 10.8 28.6°
Maximum altitude 13:21:06 75° 171° (S) 2,701 10.0 28.0°
Drops below altitude 10° 13:40:36 10° 91° (E) 6,239 11.0 26.7°
Sets 13:45:37 0° 90° (E) 7,293 11.3 26.3°
